Dewpoint
60 61 61 60 61 61 62 63 63 64 64 64 64 64 64 64 65 65 64 64 63 64 63 63 63 63 62 62 62 62 59 54 53 53 51 53 59 63 65 65 65 63 57 44 44 49 46 42 39 42 40 28 37 32 40 39 42 36 29 29 25 30 26 30 20 20 23 21 19 24 24 22 21 23 26 36 42 44 47 50 50 53 54 54 54 56 59 60
60 60 61 60 60 61 62 62 63 63 64 64 64 64 64 64 64 65 64 64 63 63 63 63 63 62 62 62 62 61 57 54 52 52 50 57 65 66 66 66 65 62 56 46 44 45 40 42 41 38 37 29 44 35 39 39 37 34 32 29 27 30 30 30 22 22 20 20 19 23 24 22 22 23 25 30 36 42 43 48 50 51 53 55 56 58 59 60
59 60 60 60 60 60 62 62 62 63 63 63 63 64 64 64 64 64 64 64 63 63 63 63 63 62 62 62 61 61 55 53 51 50 52 61 67 67 65 64 63 62 51 48 47 46 46 42 42 34 31 31 34 33 36 35 34 34 29 25 28 32 29 27 21 18 21 23 22 24 24 22 23 24 25 28 35 35 35 46 48 49 51 54 56 58 59 59
58 59 60 60 60 61 61 62 63 63 63 63 63 63 63 63 64 64 64 64 63 63 63 63 62 62 61 61 61 57 53 49 48 50 53 62 66 66 65 64 62 58 53 52 49 45 45 43 34 32 32 26 28 39 34 37 30 31 24 24 27 30 22 19 20 19 19 22 23 24 24 23 24 23 23 28 32 31 32 42 44 48 53 55 56 58 59 59
58 58 60 60 60 59 62 62 62 63 63 63 63 63 63 63 63 64 64 64 63 63 63 62 62 62 61 61 60 53 48 44 45 50 52 63 66 66 66 66 61 55 54 50 42 41 38 37 34 34 29 33 32 28 32 35 33 31 25 24 29 27 20 20 20 23 22 23 23 23 23 23 23 22 23 29 26 25 28 31 45 49 55 56 56 58 58 59
57 58 59 60 60 60 60 62 62 62 63 63 63 63 63 63 63 63 64 64 63 63 63 62 62 61 60 60 58 52 45 37 46 51 60 63 65 64 64 63 62 53 49 48 46 37 32 34 31 31 34 24 32 29 24 28 34 29 34 26 25 24 19 20 22 22 23 23 23 22 24 22 22 23 22 28 24 23 25 32 44 54 56 57 58 58 58 58
57 57 58 59 60 60 60 61 62 62 62 63 62 62 63 63 63 63 63 63 63 63 63 63 62 61 60 60 56 51 45 41 51 52 62 63 64 63 64 64 59 51 50 47 42 38 35 33 31 28 31 37 37 31 27 24 28 31 27 23 24 24 21 22 20 22 21 23 23 22 24 22 22 21 22 24 24 22 20 22 44 55 56 57 57 58 58 58
56 57 58 58 59 60 60 60 61 62 62 63 62 62 62 63 63 63 63 63 63 62 62 62 62 61 60 56 52 50 49 46 48 57 63 64 62 63 62 56 53 51 48 45 41 38 33 30 28 32 27 26 28 30 30 24 28 27 29 27 25 22 21 22 21 20 21 23 21 22 21 22 22 22 20 20 22 21 22 37 54 56 57 57 57 57 57 58
56 56 57 58 58 59 59 60 61 60 62 62 62 62 62 63 62 63 63 63 62 62 62 62 61 60 59 54 51 49 49 51 51 59 62 62 61 60 57 56 54 49 47 47 40 37 32 32 32 30 24 28 36 31 32 24 23 33 35 28 22 20 21 21 20 20 21 20 20 20 20 19 20 21 18 19 20 22 34 49 55 56 56 56 57 57 57 57
56 56 57 57 58 58 59 59 60 61 61 62 62 62 62 62 62 62 63 63 62 62 62 61 61 60 57 53 51 47 49 52 60 61 62 61 60 58 55 56 54 50 49 48 40 35 34 35 31 34 31 32 36 32 37 34 26 29 33 27 23 21 21 23 19 19 21 23 20 19 19 19 20 18 13 16 18 37 38 50 54 55 56 56 57 57 57 57
55 56 56 57 57 58 59 59 60 61 61 62 62 62 62 62 62 62 63 63 62 62 62 61 60 59 55 53 49 47 51 56 59 60 61 60 60 57 54 56 54 50 49 49 42 37 42 35 36 36 35 27 31 28 26 29 29 25 26 22 20 20 20 22 20 20 20 18 19 19 19 20 19 20 14 15 26 37 38 50 54 54 55 56 56 56 57 57
54 55 55 56 57 58 59 59 60 60 61 61 62 62 61 61 61 62 62 63 62 62 62 61 61 57 54 52 49 48 44 56 59 60 61 59 59 58 56 56 53 50 50 47 45 45 40 36 37 39 29 38 29 30 23 27 19 33 22 19 19 18 18 19 19 20 21 18 19 19 17 16 19 16 17 18 36 39 42 50 53 54 54 55 56 56 56 57
54 55 55 56 57 57 58 59 59 60 60 61 61 61 61 61 61 62 62 63 62 62 61 61 60 56 54 51 51 49 46 60 60 60 60 59 58 58 58 56 51 50 49 45 44 49 45 39 37 29 32 30 30 28 23 21 20 26 22 20 17 17 16 17 21 21 19 18 20 19 14 16 15 16 18 21 40 41 43 47 52 53 53 54 55 56 56 57
54 55 55 55 56 57 58 58 59 60 60 61 61 61 61 61 61 61 62 62 62 62 61 61 59 56 53 51 49 47 57 56 60 59 58 58 57 56 57 57 55 52 51 45 48 44 42 38 37 30 38 26 24 32 27 25 23 33 28 17 20 18 18 18 19 20 18 22 20 16 16 14 15 15 19 24 38 38 37 42 49 51 52 53 54 55 56 56
54 54 55 55 56 56 57 58 59 60 60 61 61 61 61 61 61 61 62 62 62 62 61 60 58 55 52 51 51 46 59 58 58 58 58 57 56 55 56 56 54 49 42 45 44 45 41 40 37 29 28 29 30 24 22 23 23 23 16 17 21 18 20 23 24 18 20 18 19 15 19 14 14 14 15 17 31 37 32 37 43 47 49 51 53 54 55 56
54 54 55 55 55 56 57 57 58 59 59 60 61 61 60 61 61 61 61 62 62 61 61 57 56 55 51 49 49 59 52 52 55 58 58 57 56 55 56 55 47 41 36 36 39 39 37 39 30 29 28 26 22 24 21 25 20 23 18 25 21 21 21 20 19 22 22 19 19 14 14 14 11 11 15 21 26 31 32 32 39 43 45 47 51 53 54 54
54 54 54 55 55 56 57 57 58 58 59 58 60 60 60 60 61 61 61 61 61 60 58 55 56 54 47 48 53 50 49 51 51 55 53 55 56 54 53 52 50 44 37 38 39 37 38 32 32 31 31 23 21 23 21 21 20 20 21 16 27 17 16 15 18 21 26 18 16 17 14 13 9 12 14 19 23 25 26 26 31 38 41 43 47 50 52 53
54 54 54 55 55 56 56 57 57 58 59 58 59 60 60 60 61 61 60 61 60 60 57 57 54 51 49 43 44 46 48 47 50 53 51 43 53 54 53 50 45 43 32 32 36 35 36 31 30 27 27 25 20 21 23 21 21 18 16 16 14 14 15 15 17 16 18 18 16 16 16 15 14 15 15 17 22 22 23 22 21 28 34 35 39 43 47 50
54 54 54 55 55 55 56 57 57 58 59 58 59 60 61 61 61 60 57 57 53 48 48 48 49 43 40 46 45 46 48 49 48 49 43 49 52 46 41 42 49 40 37 31 29 33 33 32 32 28 26 25 22 19 21 23 19 21 19 17 21 15 14 14 16 19 18 16 15 14 15 15 15 15 15 15 19 19 20 20 18 18 21 25 29 34 39 43
54 53 54 55 55 55 56 57 58 58 58 58 58 58 57 54 52 51 56 55 52 48 49 49 49 43 44 46 42 45 47 47 46 43 43 46 48 42 38 41 39 46 33 35 31 32 33 27 25 26 26 25 23 22 21 22 17 18 21 19 14 15 15 16 18 21 21 17 15 14 14 15 15 14 15 15 15 18 19 19 18 18 17 18 21 26 31 35
53 53 54 54 55 55 56 57 57 58 58 57 57 55 48 50 47 45 49 52 52 52 50 50 50 38 41 44 44 45 44 41 41 39 43 51 46 45 36 41 42 37 31 31 31 30 29 28 27 28 28 27 24 20 19 18 18 17 21 20 13 19 11 14 17 22 22 17 17 16 16 16 15 15 15 15 15 13 14 17 19 18 18 18 18 20 24 28
53 53 54 54 54 55 56 56 57 57 58 56 54 52 53 52 53 53 52 46 50 47 46 50 47 40 39 42 44 45 44 40 39 39 43 48 47 45 37 40 37 37 29 28 27 27 27 28 27 27 24 29 26 17 17 17 17 19 16 20 18 15 21 17 22 22 21 19 15 20 15 15 15 16 16 16 15 14 14 15 17 18 19 19 18 19 19 22
54 54 54 54 54 55 56 56 57 57 56 53 50 53 53 53 55 56 54 50 47 48 47 49 42 40 38 41 43 44 42 41 39 38 41 45 46 43 34 38 37 35 27 26 26 27 26 28 27 24 22 24 22 17 15 18 18 17 18 18 15 23 15 12 15 22 20 16 17 20 16 17 16 16 16 17 16 16 17 16 17 20 19 19 18 18 19 19
55 54 54 54 54 55 56 56 57 56 53 53 52 52 53 55 55 54 51 44 41 44 48 49 43 43 38 39 39 42 41 40 40 37 39 41 41 34 38 38 37 33 28 26 27 27 27 27 26 23 23 23 23 20 17 16 15 20 21 21 22 21 21 12 10 20 21 23 24 16 18 15 14 12 12 11 15 17 17 20 19 21 24 23 27 26 23 19
55 54 54 54 54 54 55 56 55 53 55 54 52 54 53 55 55 54 48 43 41 41 47 49 45 45 39 42 39 39 38 37 40 38 38 38 30 34 36 37 36 33 31 26 26 27 26 23 26 21 22 21 24 20 20 21 15 17 24 19 18 23 17 24 24 19 18 19 24 20 13 15 16 20 15 10 15 12 13 17 17 18 19 21 21 21 23 28
54 54 54 53 54 54 56 52 51 55 53 50 52 54 55 55 55 53 49 38 33 40 44 43 46 41 42 37 39 38 36 36 39 37 36 35 34 32 30 31 33 34 30 25 25 25 25 25 25 23 23 24 23 21 23 21 16 16 14 21 18 16 20 26 25 22 16 13 22 17 13 14 16 13 13 16 18 16 16 18 15 15 17 19 20 21 20 21
55 54 54 53 54 55 51 46 53 54 48 50 54 54 55 54 52 50 44 32 31 39 39 45 44 43 40 37 36 35 34 34 38 38 35 36 29 30 30 29 22 22 26 24 24 22 24 22 23 26 24 24 22 18 22 19 17 15 24 24 21 23 24 26 24 20 21 26 25 25 18 12 12 10 14 20 17 15 14 14 16 15 14 16 18 20 21 22
55 54 53 54 54 55 51 51 52 50 50 51 54 54 55 53 51 50 40 25 24 41 38 42 43 42 39 36 38 42 29 34 34 35 34 34 28 27 28 26 28 24 23 24 24 27 24 23 23 24 24 22 20 20 26 21 17 19 26 27 24 22 24 26 23 21 24 19 18 21 23 9 11 14 18 18 12 10 9 9 10 11 15 15 16 18 20 22
55 54 53 53 54 55 53 50 51 51 52 53 55 55 53 51 50 44 32 24 36 37 46 41 43 40 36 40 40 40 32 34 33 35 37 35 37 25 23 25 26 23 23 24 25 22 21 25 22 23 23 21 22 19 24 22 16 22 32 32 31 30 30 27 21 21 18 14 15 17 18 10 13 20 17 17 11 12 12 11 10 12 13 16 19 18 19 20
54 53 53 54 55 54 53 53 51 52 52 53 55 54 52 50 45 37 28 21 37 28 40 38 38 36 35 35 33 35 33 31 35 34 33 29 32 28 27 23 21 22 24 23 27 26 23 33 28 23 22 22 20 19 27 21 21 33 30 26 26 27 24 25 26 23 16 12 15 19 19 11 10 16 10 12 14 8 6 4 4 9 15 17 21 20 22 22
54 53 53 54 52 53 52 49 52 53 52 53 53 52 50 46 37 29 24 29 38 36 37 35 35 35 32 31 30 30 32 33 33 33 30 31 30 26 23 22 27 25 24 25 25 26 28 28 25 27 32 30 21 27 32 32 32 28 24 23 22 21 24 22 24 24 10 11 16 21 20 11 11 13 14 13 9 10 2 -0 -2 3 15 16 20 29 30 27
54 54 54 54 53 54 49 48 52 53 53 53 51 48 45 33 34 29 24 39 28 32 33 34 35 33 32 31 30 29 30 33 33 31 29 28 29 22 21 20 21 21 20 21 22 26 25 26 28 27 33 24 25 22 26 31 31 26 24 19 17 16 17 13 13 12 11 9 15 18 21 13 14 13 10 9 8 9 11 10 10 14 14 15 22 32 34 35
53 54 54 52 53 52 50 50 53 52 52 51 50 47 40 31 23 32 32 35 28 36 32 35 33 32 31 30 28 30 34 31 32 31 30 29 28 25 24 23 22 20 17 21 23 23 23 26 26 27 27 31 25 17 24 23 28 24 20 18 16 13 11 10 8 6 7 14 14 17 19 13 15 14 19 16 14 11 9 13 16 16 15 16 20 32 33 34
54 53 53 53 53 52 51 52 52 52 51 49 47 42 37 30 26 36 32 34 32 35 34 33 33 34 31 28 28 29 28 33 32 30 29 28 27 24 23 25 22 22 25 23 22 22 20 18 23 26 24 29 24 18 22 25 25 24 23 20 20 18 11 6 6 9 12 15 14 20 11 13 10 11 17 15 16 18 19 17 18 19 19 19 27 33 33 32
54 53 53 53 53 53 51 52 52 52 50 47 43 37 29 27 33 30 32 33 34 33 32 33 31 30 29 29 29 29 31 30 34 31 29 27 26 24 22 21 24 22 24 19 22 18 20 20 25 28 29 29 26 28 29 27 26 25 25 25 18 18 21 10 15 13 11 7 8 11 14 19 12 17 17 18 18 18 20 21 24 21 21 24 27 29 32 32
53 53 53 50 51 52 52 52 52 50 50 46 39 33 32 32 29 35 33 36 33 31 31 31 31 29 28 27 29 28 33 32 32 30 29 28 27 24 24 23 23 23 20 16 22 18 19 16 28 28 29 28 28 30 28 26 16 24 21 20 22 24 20 15 11 15 11 10 9 14 15 17 17 9 9 12 14 13 16 16 19 20 22 26 28 29 31 32
51 52 49 51 51 51 51 51 51 50 48 44 37 31 35 33 36 36 37 34 32 32 31 28 28 27 26 26 27 27 31 32 32 29 26 29 25 26 24 24 24 24 21 21 21 23 16 21 26 26 26 28 30 30 30 30 25 22 18 21 26 29 26 18 10 11 9 9 10 12 11 11 6 11 19 11 9 9 11 12 15 19 23 24 27 30 31 32
50 50 49 50 51 51 51 50 50 49 46 41 34 34 35 32 37 35 36 34 32 32 30 29 29 29 26 26 25 26 30 27 28 28 26 26 24 27 25 23 24 23 22 23 19 22 25 18 24 27 27 28 29 29 26 27 29 23 22 28 19 15 13 13 13 3 4 3 5 11 15 14 10 9 14 5 3 4 4 11 15 15 19 22 25 27 29 30
50 48 42 48 51 51 50 50 50 47 42 36 33 33 35 32 36 34 34 32 32 32 29 29 28 29 27 25 26 27 28 24 27 26 25 26 23 26 25 23 24 24 23 23 18 22 23 18 22 27 27 28 29 27 22 24 27 28 25 20 23 19 20 12 13 13 12 10 1 11 7 9 18 10 11 6 6 9 5 7 12 14 17 19 22 26 27 27
47 44 41 50 51 52 50 50 47 44 39 33 33 32 37 29 32 34 33 31 31 30 29 29 29 27 28 27 27 26 28 26 26 25 25 26 24 25 24 25 25 26 24 26 24 28 20 25 18 24 27 27 25 27 22 23 24 23 19 18 16 18 22 18 11 13 8 6 5 1 1 13 18 16 10 7 5 6 8 11 16 17 18 19 21 24 26 28
48 42 42 51 51 51 50 47 42 38 35 36 37 32 33 29 31 33 33 33 32 31 28 29 28 27 27 27 26 28 26 26 26 24 24 24 24 21 25 24 27 26 26 26 26 25 21 20 20 24 26 24 25 27 27 26 26 24 21 19 17 18 12 10 12 15 11 5 4 1 5 11 19 17 12 9 7 9 11 14 18 20 19 20 22 23 28 32
44 36 38 50 51 51 47 39 38 41 36 33 33 33 33 36 32 32 32 33 32 30 31 29 29 28 28 27 27 27 26 26 26 25 24 23 25 23 25 25 26 26 23 20 20 26 25 25 26 20 25 26 26 28 31 30 29 27 22 20 21 17 18 11 9 15 11 13 14 12 3 11 17 19 15 13 11 10 14 16 14 17 20 22 23 24 31 36
42 38 47 50 51 49 44 36 38 38 34 37 36 32 34 31 30 31 31 32 30 30 29 28 28 27 27 27 28 28 26 25 26 23 24 24 24 26 27 26 26 26 24 24 25 25 34 24 23 23 25 27 28 27 30 31 28 27 26 25 21 16 17 15 17 18 16 12 8 7 4 14 21 27 23 18 19 24 23 18 16 14 20 26 26 30 34 36
42 41 43 50 50 48 41 31 31 35 35 36 34 31 34 30 29 30 30 31 29 28 28 28 28 27 26 28 27 26 26 22 26 25 23 25 23 27 28 28 25 25 23 23 19 29 19 23 21 19 18 22 23 25 24 25 28 26 23 25 24 23 23 21 16 15 10 17 14 12 6 4 19 24 22 22 21 19 19 22 21 18 21 31 36 36 36 38
43 44 45 46 50 45 37 38 35 35 35 34 33 31 28 29 31 30 30 29 29 28 28 27 27 28 27 29 28 28 28 26 25 27 27 25 25 31 30 29 25 24 25 30 32 32 27 26 23 18 17 16 16 18 18 22 25 25 25 24 23 22 19 14 10 7 6 15 16 11 8 18 19 19 18 17 18 17 19 22 25 25 27 33 36 35 37 37
40 33 40 42 45 44 41 40 39 36 35 34 32 31 28 26 29 32 31 29 31 29 26 29 29 28 27 27 26 27 27 30 27 26 25 24 27 30 29 30 26 27 31 34 32 25 23 27 24 21 18 17 17 19 25 27 25 23 25 25 23 23 21 22 21 13 11 15 15 15 14 13 8 13 14 14 16 15 14 18 21 24 24 31 34 34 35 36
41 35 36 34 41 42 38 38 37 37 35 35 31 31 27 27 27 29 32 27 31 28 28 28 28 26 26 27 26 26 27 28 29 27 26 26 28 29 30 31 30 31 35 33 30 28 28 23 25 23 21 19 23 25 26 26 24 25 25 24 25 23 22 21 18 14 16 17 11 14 18 16 12 15 14 13 16 17 17 17 15 17 21 31 33 34 37 35
34 36 40 40 35 33 35 35 38 36 37 35 33 30 27 26 26 26 30 31 30 28 27 28 27 27 27 26 26 26 27 27 28 26 27 28 29 28 28 30 29 33 31 28 30 23 24 21 25 24 23 22 25 26 27 27 25 25 25 25 24 25 23 22 22 18 20 15 9 19 17 15 14 14 14 14 15 15 14 14 14 17 27 33 34 35 35 36
37 38 39 40 36 36 37 37 37 36 36 35 32 30 27 26 26 27 27 29 28 26 27 25 26 27 27 28 26 26 26 25 26 28 27 29 28 28 27 28 29 32 27 28 26 27 23 21 25 24 22 22 23 26 27 25 25 25 25 25 25 25 23 22 20 20 19 17 18 21 21 18 19 16 16 17 19 17 15 18 19 22 31 35 35 34 35 36
35 36 35 38 38 38 38 37 36 36 33 35 29 29 28 26 26 27 29 27 24 25 28 25 26 27 27 27 27 25 26 26 26 26 27 27 28 27 26 27 28 29 28 26 26 25 21 20 27 24 20 20 25 27 26 25 25 23 25 25 25 25 25 24 22 21 22 20 22 22 21 22 22 23 21 21 20 20 17 15 16 20 31 34 34 35 36 36
36 35 39 37 34 37 38 37 35 34 32 32 29 29 28 27 26 28 28 29 25 25 26 25 27 27 27 27 27 26 28 27 28 28 29 28 26 27 24 26 28 28 27 27 25 26 24 20 22 22 20 16 21 25 24 24 23 23 23 25 25 24 23 23 23 22 21 20 20 20 19 18 21 22 22 21 18 18 16 17 17 20 29 33 33 34 35 36
38 38 41 38 33 38 36 37 35 32 30 30 30 29 27 27 28 29 27 29 31 27 27 27 28 26 26 26 25 26 29 28 29 30 29 28 30 30 29 31 29 28 28 28 28 26 24 22 20 20 19 17 17 24 22 21 20 18 22 24 25 24 23 23 23 24 23 22 20 19 17 21 20 21 19 19 18 18 18 18 19 20 24 31 31 31 33 35